Rome Ciampino, Italy

5:27 AM CEST on May 28, 2017 (GMT +0200)
Ciampino

Weather History for LIRA - December, 2012

Change the Weather History Date:

Saturday, December 29, 2012

  Actual Average Record
Temperature  
Mean Temperature 45 °F -  
Max Temperature 53 °F 53 °F 58 °F (2013)
Min Temperature 37 °F 37 °F 30 °F (2007)
Degree Days  
Heating Degree Days 20    
Moisture  
Dew Point 31 °F    
Average Humidity 58    
Maximum Humidity 81    
Minimum Humidity 41    
Precipitation  
Precipitation 0.00 in 0.14 in - ()
Sea Level Pressure  
Sea Level Pressure 30.18 in    
Wind  
Wind Speed 8 mph ()    
Max Wind Speed 18 mph    
Max Gust Speed 25 mph    
Averages and records for this station are not official NWS values.
T = Trace of Precipitation, MM = Missing Value Source: Averaged Metar Reports

Daily Weather History Graph

Daily Weather History Graph

Search for Another Location

Airport or City:

Trip Planner

Search our weather history database for the weather conditions in past years. The results will help you decide how hot, cold, wet, or windy it might be!

Date:

Astronomy

Dec. 29, 2012 Rise Set
Actual Time 7:36 AM CET 4:47 PM CET
Civil Twilight 7:05 AM CET 5:18 PM CET
Nautical Twilight 6:30 AM CET 5:53 PM CET
Astronomical Twilight 5:56 AM CET 6:27 PM CET
Moon 6:05 PM CET (12/29) 7:58 AM CET (12/29)
Length of Visible Light 10h 13m
Length of Day
9h 10m
Full, 99% of the Moon is Illuminated
Dec 29
Full
Jan 5
Last Quarter
Jan 11
New
Jan 19
First Quarter
Jan 27
Full

Hourly Weather History & Observations

Time (CET) Temp. Windchill Dew Point Humidity Pressure Visibility Wind Dir Wind Speed Gust Speed Precip Events Conditions
12:15 AM 48.2 °F - 30.2 °F 50% 30.21 in - NNW 5.8 mph - N/A   Clear
12:45 AM 48.2 °F - 32.0 °F 54% 30.21 in - North 8.1 mph - N/A   Clear
1:15 AM 48.2 °F - 32.0 °F 54% 30.21 in - NNW 12.7 mph - N/A   Clear
1:45 AM 48.2 °F - 32.0 °F 54% 30.21 in - NNW 18.4 mph - N/A   Clear
2:15 AM 48.2 °F - 32.0 °F 54% 30.18 in - NNW 18.4 mph - N/A   Clear
2:45 AM 48.2 °F - 33.8 °F 58% 30.18 in - NNW 17.3 mph - N/A   Clear
3:15 AM 46.4 °F 41.9 °F 32.0 °F 57% 30.18 in - North 9.2 mph - N/A   Clear
3:45 AM 46.4 °F 41.9 °F 32.0 °F 57% 30.18 in - North 9.2 mph - N/A   Clear
4:15 AM 46.4 °F 41.1 °F 32.0 °F 57% 30.18 in - NNW 11.5 mph - N/A   Clear
4:45 AM 44.6 °F 43.1 °F 32.0 °F 61% 30.21 in - North 3.5 mph - N/A   Clear
5:15 AM 41.0 °F - 30.2 °F 65% 30.21 in - East 2.3 mph - N/A   Clear
5:45 AM 39.2 °F 35.9 °F 30.2 °F 70% 30.21 in - East 4.6 mph - N/A   Clear
6:15 AM 37.4 °F 33.8 °F 30.2 °F 75% 30.21 in - East 4.6 mph - N/A   Clear
6:45 AM 39.2 °F - 30.2 °F 70% 30.21 in - North 1.2 mph - N/A   Clear
7:15 AM 41.0 °F 37.1 °F 30.2 °F 65% 30.21 in - NE 5.8 mph - N/A   Clear
7:45 AM 41.0 °F 36.4 °F 30.2 °F 65% 30.21 in - East 6.9 mph - N/A   Clear
8:15 AM 41.0 °F 36.4 °F 30.2 °F 65% 30.21 in - NNE 6.9 mph - N/A   Clear
8:45 AM 42.8 °F 38.6 °F 32.0 °F 66% 30.21 in - NE 6.9 mph - N/A   Clear
9:15 AM 42.8 °F 39.3 °F 30.2 °F 61% 30.21 in - NNE 5.8 mph - N/A   Clear
9:45 AM 46.4 °F 43.5 °F 30.2 °F 53% 30.21 in - North 5.8 mph - N/A   Clear
10:15 AM 48.2 °F - 32.0 °F 54% 30.21 in - North 9.2 mph - N/A   Clear
10:45 AM 48.2 °F - 32.0 °F 54% 30.21 in - North 9.2 mph - N/A   Clear
11:15 AM 50.0 °F - 32.0 °F 50% 30.21 in - North 10.4 mph - N/A   Clear
11:45 AM 50.0 °F - 33.8 °F 54% 30.21 in - North 13.8 mph - N/A   Clear
12:15 PM 51.8 °F - 33.8 °F 50% 30.21 in - NNE 16.1 mph - N/A   Clear
12:45 PM 53.6 °F - 32.0 °F 44% 30.18 in - NNE 9.2 mph - N/A   Clear
1:15 PM 53.6 °F - 30.2 °F 41% 30.18 in - North 13.8 mph 25.3 mph N/A   Clear
1:45 PM 53.6 °F - 30.2 °F 41% 30.18 in - North 13.8 mph - N/A   Clear
2:15 PM 53.6 °F - 30.2 °F 41% 30.18 in - North 12.7 mph 24.2 mph N/A   Clear
2:45 PM 53.6 °F - 30.2 °F 41% 30.18 in - North 9.2 mph - N/A   Clear
3:15 PM 53.6 °F - 30.2 °F 41% 30.18 in - NNE 8.1 mph - N/A   Clear
3:45 PM 53.6 °F - 30.2 °F 41% 30.18 in - North 9.2 mph - N/A   Clear
4:15 PM 51.8 °F - 28.4 °F 41% 30.15 in - North 6.9 mph - N/A   Clear
4:45 PM 51.8 °F - 28.4 °F 41% 30.18 in - NE 8.1 mph - N/A   Clear
5:15 PM 50.0 °F - 28.4 °F 43% 30.15 in - NNE 6.9 mph - N/A   Clear
5:45 PM 48.2 °F - 30.2 °F 50% 30.15 in - NNE 5.8 mph - N/A   Clear
6:15 PM 46.4 °F 42.4 °F 32.0 °F 57% 30.15 in - ENE 8.1 mph - N/A   Clear
6:45 PM 46.4 °F 42.4 °F 32.0 °F 57% 30.15 in - ENE 8.1 mph - N/A   Clear
7:15 PM 44.6 °F 43.1 °F 30.2 °F 57% 30.15 in - North 3.5 mph - N/A   Clear
7:45 PM 39.2 °F - 30.2 °F 70% 30.15 in - ESE 2.3 mph - N/A   Clear
8:15 PM 39.2 °F - 32.0 °F 75% 30.15 in - Calm Calm - N/A   Clear
8:45 PM 39.2 °F - 32.0 °F 75% 30.15 in - Calm Calm - N/A   Clear
9:15 PM 39.2 °F - 32.0 °F 75% 30.15 in - Calm Calm - N/A   Clear
9:45 PM 39.2 °F - 32.0 °F 75% 30.15 in - SE 2.3 mph - N/A   Clear
10:15 PM 37.4 °F 34.9 °F 32.0 °F 81% 30.15 in - ESE 3.5 mph - N/A   Clear
10:45 PM 37.4 °F - 32.0 °F 81% 30.15 in - ESE 2.3 mph - N/A   Clear
11:15 PM 37.4 °F - 32.0 °F 81% 30.18 in - NE 1.2 mph - N/A   Clear
11:45 PM 37.4 °F - 32.0 °F 81% 30.18 in - NE 2.3 mph - N/A   Clear